Year,Month,Day,Hour,Minute,Value (Times are PST for temperature in C)
2014,03,04,00,00,3.50
2014,03,04,00,01,3.50
2014,03,04,00,02,3.60
2014,03,04,00,03,3.60
2014,03,04,00,04,3.60
2014,03,04,00,05,3.60
2014,03,04,00,06,3.60
2014,03,04,00,07,3.60
2014,03,04,00,08,3.60
2014,03,04,00,09,3.60
2014,03,04,00,10,3.60
2014,03,04,00,11,3.60
2014,03,04,00,12,3.60
2014,03,04,00,13,3.60
2014,03,04,00,14,3.60
2014,03,04,00,15,3.60
2014,03,04,00,16,3.60
2014,03,04,00,17,3.60
2014,03,04,00,18,3.60
2014,03,04,00,19,3.60
2014,03,04,00,20,3.60
2014,03,04,00,21,3.60
2014,03,04,00,22,3.60
2014,03,04,00,23,3.60
2014,03,04,00,24,3.60
2014,03,04,00,25,3.60
2014,03,04,00,26,3.60
2014,03,04,00,27,3.60
2014,03,04,00,28,3.70
2014,03,04,00,29,3.70
2014,03,04,00,30,3.70
2014,03,04,00,31,3.70
2014,03,04,00,32,3.60
2014,03,04,00,33,3.70
2014,03,04,00,34,3.70
2014,03,04,00,35,3.60
2014,03,04,00,36,3.60
2014,03,04,00,37,3.60
2014,03,04,00,38,3.60
2014,03,04,00,39,3.60
2014,03,04,00,40,3.60
2014,03,04,00,41,3.60
2014,03,04,00,42,3.60
2014,03,04,00,43,3.60
2014,03,04,00,44,3.60
2014,03,04,00,45,3.60
2014,03,04,00,46,3.60
2014,03,04,00,47,3.60
2014,03,04,00,48,3.60
2014,03,04,00,49,3.60
2014,03,04,00,50,3.60
2014,03,04,00,51,3.60
2014,03,04,00,52,3.60
2014,03,04,00,53,3.60
2014,03,04,00,54,3.60
2014,03,04,00,55,3.60
2014,03,04,00,56,3.60
2014,03,04,00,57,3.60
2014,03,04,00,58,3.60
2014,03,04,00,59,3.60
2014,03,04,01,00,3.60
2014,03,04,01,01,3.60
2014,03,04,01,02,3.60
2014,03,04,01,03,3.60
2014,03,04,01,04,3.60
2014,03,04,01,05,3.50
2014,03,04,01,06,3.50
2014,03,04,01,07,3.50
2014,03,04,01,08,3.50
2014,03,04,01,09,3.50
2014,03,04,01,10,3.50
2014,03,04,01,11,3.50
2014,03,04,01,12,3.50
2014,03,04,01,13,3.40
2014,03,04,01,14,3.40
2014,03,04,01,15,3.40
2014,03,04,01,16,3.40
2014,03,04,01,17,3.40
2014,03,04,01,18,3.40
2014,03,04,01,19,3.40
2014,03,04,01,20,3.40
2014,03,04,01,21,3.40
2014,03,04,01,22,3.30
2014,03,04,01,23,3.40
2014,03,04,01,24,3.40
2014,03,04,01,25,3.30
2014,03,04,01,26,3.30
2014,03,04,01,27,3.30
2014,03,04,01,28,3.30
2014,03,04,01,29,3.30
2014,03,04,01,30,3.30
2014,03,04,01,31,3.30
2014,03,04,01,32,3.30
2014,03,04,01,33,3.30
2014,03,04,01,34,3.30
2014,03,04,01,35,3.30
2014,03,04,01,36,3.30
2014,03,04,01,37,3.30
2014,03,04,01,38,3.30
2014,03,04,01,39,3.30
2014,03,04,01,40,3.30
2014,03,04,01,41,3.30
2014,03,04,01,42,3.30
2014,03,04,01,43,3.30
2014,03,04,01,44,3.30
2014,03,04,01,45,3.30
2014,03,04,01,46,3.30
2014,03,04,01,47,3.30
2014,03,04,01,48,3.30
2014,03,04,01,49,3.30
2014,03,04,01,50,3.30
2014,03,04,01,51,3.30
2014,03,04,01,52,3.30
2014,03,04,01,53,3.30
2014,03,04,01,54,3.30
2014,03,04,01,55,3.30
2014,03,04,01,56,3.30
2014,03,04,01,57,3.30
2014,03,04,01,58,3.30
2014,03,04,01,59,3.30
2014,03,04,02,00,3.20
2014,03,04,02,01,3.20
2014,03,04,02,02,3.20
2014,03,04,02,03,3.20
2014,03,04,02,04,3.20
2014,03,04,02,05,3.20
2014,03,04,02,06,3.20
2014,03,04,02,07,3.20
2014,03,04,02,08,3.20
2014,03,04,02,09,3.20
2014,03,04,02,10,3.20
2014,03,04,02,11,3.20
2014,03,04,02,12,3.20
2014,03,04,02,13,3.20
2014,03,04,02,14,3.20
2014,03,04,02,15,3.20
2014,03,04,02,16,3.20
2014,03,04,02,17,3.20
2014,03,04,02,18,3.20
2014,03,04,02,19,3.20
2014,03,04,02,20,3.20
2014,03,04,02,21,3.20
2014,03,04,02,22,3.20
2014,03,04,02,23,3.10
2014,03,04,02,24,3.10
2014,03,04,02,25,3.10
2014,03,04,02,26,3.10
2014,03,04,02,27,3.10
2014,03,04,02,28,3.10
2014,03,04,02,29,3.10
2014,03,04,02,30,3.10
2014,03,04,02,31,3.10
2014,03,04,02,32,3.10
2014,03,04,02,33,3.10
2014,03,04,02,34,3.10
2014,03,04,02,35,3.00
2014,03,04,02,36,3.00
2014,03,04,02,37,3.00
2014,03,04,02,38,3.00
2014,03,04,02,39,3.00
2014,03,04,02,40,3.00
2014,03,04,02,41,3.00
2014,03,04,02,42,3.00
2014,03,04,02,43,3.00
2014,03,04,02,44,3.00
2014,03,04,02,45,3.00
2014,03,04,02,46,3.00
2014,03,04,02,47,3.00
2014,03,04,02,48,3.00
2014,03,04,02,49,3.00
2014,03,04,02,50,3.00
2014,03,04,02,51,3.00
2014,03,04,02,52,3.00
2014,03,04,02,53,3.00
2014,03,04,02,54,3.00
2014,03,04,02,55,3.00
2014,03,04,02,56,3.00
2014,03,04,02,57,3.00
2014,03,04,02,58,3.00
2014,03,04,02,59,3.00
2014,03,04,03,00,3.00
2014,03,04,03,01,3.00
2014,03,04,03,02,3.00
2014,03,04,03,03,3.00
2014,03,04,03,04,3.00
2014,03,04,03,05,2.90
2014,03,04,03,06,2.90
2014,03,04,03,07,2.90
2014,03,04,03,08,2.90
2014,03,04,03,09,2.90
2014,03,04,03,10,2.90
2014,03,04,03,11,2.90
2014,03,04,03,12,2.90
2014,03,04,03,13,2.90
2014,03,04,03,14,2.90
2014,03,04,03,15,2.90
2014,03,04,03,16,2.90
2014,03,04,03,17,2.90
2014,03,04,03,18,2.90
2014,03,04,03,19,2.90
2014,03,04,03,20,2.90
2014,03,04,03,21,2.90
2014,03,04,03,22,2.90
2014,03,04,03,23,2.90
2014,03,04,03,24,2.90
2014,03,04,03,25,2.90
2014,03,04,03,26,2.80
2014,03,04,03,27,2.80
2014,03,04,03,28,2.80
2014,03,04,03,29,2.80
2014,03,04,03,30,2.80
2014,03,04,03,31,2.80
2014,03,04,03,32,2.80
2014,03,04,03,33,2.90
2014,03,04,03,34,2.90
2014,03,04,03,35,2.80
2014,03,04,03,36,2.80
2014,03,04,03,37,2.80
2014,03,04,03,38,2.80
2014,03,04,03,39,2.80
2014,03,04,03,40,2.80
2014,03,04,03,41,2.80
2014,03,04,03,42,2.80
2014,03,04,03,43,2.80
2014,03,04,03,44,2.80
2014,03,04,03,45,2.80
2014,03,04,03,46,2.80
2014,03,04,03,47,2.80
2014,03,04,03,48,2.80
2014,03,04,03,49,2.80
2014,03,04,03,50,2.80
2014,03,04,03,51,2.80
2014,03,04,03,52,2.80
2014,03,04,03,53,2.80
2014,03,04,03,54,2.80
2014,03,04,03,55,2.80
2014,03,04,03,56,2.80
2014,03,04,03,57,2.80
2014,03,04,03,58,2.80
2014,03,04,03,59,2.80
2014,03,04,04,00,2.80
2014,03,04,04,01,2.80
2014,03,04,04,02,2.80
2014,03,04,04,03,2.80
2014,03,04,04,04,2.80
2014,03,04,04,05,2.80
2014,03,04,04,06,2.80
2014,03,04,04,07,2.80
2014,03,04,04,08,2.80
2014,03,04,04,09,2.70
2014,03,04,04,10,2.70
2014,03,04,04,11,2.70
2014,03,04,04,12,2.70
2014,03,04,04,13,2.70
2014,03,04,04,14,2.70
2014,03,04,04,15,2.70
2014,03,04,04,16,2.70
2014,03,04,04,17,2.70
2014,03,04,04,18,2.70
2014,03,04,04,19,2.70
2014,03,04,04,20,2.70
2014,03,04,04,21,2.70
2014,03,04,04,22,2.70
2014,03,04,04,23,2.70
2014,03,04,04,24,2.70
2014,03,04,04,25,2.70
2014,03,04,04,26,2.70
2014,03,04,04,27,2.80
2014,03,04,04,28,2.80
2014,03,04,04,29,2.80
2014,03,04,04,30,2.80
2014,03,04,04,31,2.80
2014,03,04,04,32,2.80
2014,03,04,04,33,2.80
2014,03,04,04,34,2.80
2014,03,04,04,35,2.80
2014,03,04,04,36,2.80
2014,03,04,04,37,2.80
2014,03,04,04,38,2.80
2014,03,04,04,39,2.80
2014,03,04,04,40,2.80
2014,03,04,04,41,2.80
2014,03,04,04,42,2.80
2014,03,04,04,43,2.80
2014,03,04,04,44,2.80
2014,03,04,04,45,2.80
2014,03,04,04,46,2.80
2014,03,04,04,47,2.80
2014,03,04,04,48,2.80
2014,03,04,04,49,2.80
2014,03,04,04,50,2.80
2014,03,04,04,51,2.70
2014,03,04,04,52,2.70
2014,03,04,04,53,2.70
2014,03,04,04,54,2.70
2014,03,04,04,55,2.70
2014,03,04,04,56,2.70
2014,03,04,04,57,2.70
2014,03,04,04,58,2.70
2014,03,04,04,59,2.70
2014,03,04,05,00,2.70
2014,03,04,05,01,2.70
2014,03,04,05,02,2.70
2014,03,04,05,03,2.70
2014,03,04,05,04,2.70
2014,03,04,05,05,2.60
2014,03,04,05,06,2.60
2014,03,04,05,07,2.60
2014,03,04,05,08,2.60
2014,03,04,05,09,2.60
2014,03,04,05,10,2.60
2014,03,04,05,11,2.60
2014,03,04,05,12,2.60
2014,03,04,05,13,2.60
2014,03,04,05,14,2.60
2014,03,04,05,15,2.60
2014,03,04,05,16,2.60
2014,03,04,05,17,2.60
2014,03,04,05,18,2.60
2014,03,04,05,19,2.60
2014,03,04,05,20,2.60
2014,03,04,05,21,2.60
2014,03,04,05,22,2.60
2014,03,04,05,23,2.60
2014,03,04,05,24,2.70
2014,03,04,05,25,2.70
2014,03,04,05,26,2.70
2014,03,04,05,27,2.70
2014,03,04,05,28,2.70
2014,03,04,05,29,2.70
2014,03,04,05,30,2.70
2014,03,04,05,31,2.70
2014,03,04,05,32,2.80
2014,03,04,05,33,2.80
2014,03,04,05,34,2.80
2014,03,04,05,35,2.80
2014,03,04,05,36,2.80
2014,03,04,05,37,2.80
2014,03,04,05,38,2.80
2014,03,04,05,39,2.80
2014,03,04,05,40,2.80
2014,03,04,05,41,2.80
2014,03,04,05,42,2.80
2014,03,04,05,43,2.80
2014,03,04,05,44,2.80
2014,03,04,05,45,2.80
2014,03,04,05,46,2.80
2014,03,04,05,47,2.80
2014,03,04,05,48,2.80
2014,03,04,05,49,2.80
2014,03,04,05,50,2.80
2014,03,04,05,51,2.80
2014,03,04,05,52,2.80
2014,03,04,05,53,2.70
2014,03,04,05,54,2.70
2014,03,04,05,55,2.70
2014,03,04,05,56,2.70
2014,03,04,05,57,2.70
2014,03,04,05,58,2.70
2014,03,04,05,59,2.70
2014,03,04,06,00,2.70
2014,03,04,06,01,2.70
2014,03,04,06,02,2.70
2014,03,04,06,03,2.70
2014,03,04,06,04,2.70
2014,03,04,06,05,2.70
2014,03,04,06,06,2.70
2014,03,04,06,07,2.70
2014,03,04,06,08,2.70
2014,03,04,06,09,2.70
2014,03,04,06,10,2.80
2014,03,04,06,11,2.80
2014,03,04,06,12,2.80
2014,03,04,06,13,2.80
2014,03,04,06,14,2.80
2014,03,04,06,15,2.80
2014,03,04,06,16,2.80
2014,03,04,06,17,2.80
2014,03,04,06,18,2.80
2014,03,04,06,19,2.80
2014,03,04,06,20,2.80
2014,03,04,06,21,2.80
2014,03,04,06,22,2.80
2014,03,04,06,23,2.80
2014,03,04,06,24,2.80
2014,03,04,06,25,2.80
2014,03,04,06,26,2.80
2014,03,04,06,27,2.80
2014,03,04,06,28,2.80
2014,03,04,06,29,2.80
2014,03,04,06,30,2.80
2014,03,04,06,31,2.80
2014,03,04,06,32,2.80
2014,03,04,06,33,2.80
2014,03,04,06,34,2.80
2014,03,04,06,35,2.80
2014,03,04,06,36,2.80
2014,03,04,06,37,2.80
2014,03,04,06,38,2.80
2014,03,04,06,39,2.80
2014,03,04,06,40,2.80
2014,03,04,06,41,2.80
2014,03,04,06,42,2.80
2014,03,04,06,43,2.80
2014,03,04,06,44,2.80
2014,03,04,06,45,2.80
2014,03,04,06,46,2.80
2014,03,04,06,47,2.80
2014,03,04,06,48,2.80
2014,03,04,06,49,2.80
2014,03,04,06,50,2.80
2014,03,04,06,51,2.80
2014,03,04,06,52,2.80
2014,03,04,06,53,2.80
2014,03,04,06,54,2.80
2014,03,04,06,55,2.70
2014,03,04,06,56,2.70
2014,03,04,06,57,2.70
2014,03,04,06,58,2.70
2014,03,04,06,59,2.70
2014,03,04,07,00,2.70
2014,03,04,07,01,2.70
2014,03,04,07,02,2.70
2014,03,04,07,03,2.70
2014,03,04,07,04,2.70
2014,03,04,07,05,2.70
2014,03,04,07,06,2.70
2014,03,04,07,07,2.70
2014,03,04,07,08,2.70
2014,03,04,07,09,2.60
2014,03,04,07,10,2.60
2014,03,04,07,11,2.60
2014,03,04,07,12,2.70
2014,03,04,07,13,2.70
2014,03,04,07,14,2.70
2014,03,04,07,15,2.70
2014,03,04,07,16,2.70
2014,03,04,07,17,2.70
2014,03,04,07,18,2.70
2014,03,04,07,19,2.70
2014,03,04,07,20,2.70
2014,03,04,07,21,2.70
2014,03,04,07,22,2.70
2014,03,04,07,23,2.70
2014,03,04,07,24,2.70
2014,03,04,07,25,2.70
2014,03,04,07,26,2.70
2014,03,04,07,27,2.70
2014,03,04,07,28,2.70
2014,03,04,07,29,2.70
2014,03,04,07,30,2.70
2014,03,04,07,31,2.70
2014,03,04,07,32,2.70
2014,03,04,07,33,2.70
2014,03,04,07,34,2.70
2014,03,04,07,35,2.70
2014,03,04,07,36,2.70
2014,03,04,07,37,2.70
2014,03,04,07,38,2.70
2014,03,04,07,39,2.70
2014,03,04,07,40,2.70
2014,03,04,07,41,2.70
2014,03,04,07,42,2.70
2014,03,04,07,43,2.80
2014,03,04,07,44,2.80
2014,03,04,07,45,2.80
2014,03,04,07,46,2.80
2014,03,04,07,47,2.80
2014,03,04,07,48,2.80
2014,03,04,07,49,2.80
2014,03,04,07,50,2.80
2014,03,04,07,51,2.80
2014,03,04,07,52,2.80
2014,03,04,07,53,2.90
2014,03,04,07,54,2.90
2014,03,04,07,55,2.90
2014,03,04,07,56,2.90
2014,03,04,07,57,2.90
2014,03,04,07,58,2.90
2014,03,04,07,59,2.90
2014,03,04,08,00,2.90
2014,03,04,08,01,2.90
2014,03,04,08,02,2.90
2014,03,04,08,03,2.90
2014,03,04,08,04,2.90
2014,03,04,08,05,2.90
2014,03,04,08,06,2.90
2014,03,04,08,07,2.90
2014,03,04,08,08,2.90
2014,03,04,08,09,2.90
2014,03,04,08,10,2.90
2014,03,04,08,11,2.90
2014,03,04,08,12,2.90
2014,03,04,08,13,2.90
2014,03,04,08,14,2.90
2014,03,04,08,15,2.90
2014,03,04,08,16,2.90
2014,03,04,08,17,2.90
2014,03,04,08,18,2.90
2014,03,04,08,19,2.90
2014,03,04,08,20,2.90
2014,03,04,08,21,2.90
2014,03,04,08,22,2.90
2014,03,04,08,23,2.90
2014,03,04,08,24,2.90
2014,03,04,08,25,2.90
2014,03,04,08,26,2.90
2014,03,04,08,27,2.90
2014,03,04,08,28,2.90
2014,03,04,08,29,3.00
2014,03,04,08,30,3.00
2014,03,04,08,31,3.00
2014,03,04,08,32,3.00
2014,03,04,08,33,3.00
2014,03,04,08,34,3.00
2014,03,04,08,35,3.00
2014,03,04,08,36,3.10
2014,03,04,08,37,3.10
2014,03,04,08,38,3.10
2014,03,04,08,39,3.10
2014,03,04,08,40,3.10
2014,03,04,08,41,3.10
2014,03,04,08,42,3.10
2014,03,04,08,43,3.10
2014,03,04,08,44,3.10
2014,03,04,08,45,3.10
2014,03,04,08,46,3.10
2014,03,04,08,47,3.10
2014,03,04,08,48,3.10
2014,03,04,08,49,3.10
2014,03,04,08,50,3.10
2014,03,04,08,51,3.10
2014,03,04,08,52,3.10
2014,03,04,08,53,3.10
2014,03,04,08,54,3.10
2014,03,04,08,55,3.10
2014,03,04,08,56,3.10
2014,03,04,08,57,3.10
2014,03,04,08,58,3.10
2014,03,04,08,59,3.10
2014,03,04,09,00,3.10
2014,03,04,09,01,3.10
2014,03,04,09,02,3.10
2014,03,04,09,03,3.10
2014,03,04,09,04,3.10
2014,03,04,09,05,3.20
2014,03,04,09,06,3.20
2014,03,04,09,07,3.20
2014,03,04,09,08,3.20
2014,03,04,09,09,3.20
2014,03,04,09,10,3.20
2014,03,04,09,11,3.20
2014,03,04,09,12,3.20
2014,03,04,09,13,3.20
2014,03,04,09,14,3.20
2014,03,04,09,15,3.20
2014,03,04,09,16,3.20
2014,03,04,09,17,3.30
2014,03,04,09,18,3.30
2014,03,04,09,19,3.30
2014,03,04,09,20,3.30
2014,03,04,09,21,3.30
2014,03,04,09,22,3.30
2014,03,04,09,23,3.30
2014,03,04,09,24,3.30
2014,03,04,09,25,3.30
2014,03,04,09,26,3.20
2014,03,04,09,27,3.20
2014,03,04,09,28,3.30
2014,03,04,09,29,3.20
2014,03,04,09,30,3.20
2014,03,04,09,31,3.20
2014,03,04,09,32,3.20
2014,03,04,09,33,3.20
2014,03,04,09,34,3.20
2014,03,04,09,35,3.20
2014,03,04,09,36,3.20
2014,03,04,09,37,3.20
2014,03,04,09,38,3.20
2014,03,04,09,39,3.20
2014,03,04,09,40,3.20
2014,03,04,09,41,3.20
2014,03,04,09,42,3.20
2014,03,04,09,43,3.20
2014,03,04,09,44,3.20
2014,03,04,09,45,3.10
2014,03,04,09,46,3.10
2014,03,04,09,47,3.10
2014,03,04,09,48,3.10
2014,03,04,09,49,3.10
2014,03,04,09,50,3.10
2014,03,04,09,51,3.10
2014,03,04,09,52,3.10
2014,03,04,09,53,3.10
2014,03,04,09,54,3.10
2014,03,04,09,55,3.10
2014,03,04,09,56,3.10
2014,03,04,09,57,3.10
2014,03,04,09,58,3.10
2014,03,04,09,59,3.10
2014,03,04,10,00,3.10
2014,03,04,10,01,3.10
2014,03,04,10,02,3.10
2014,03,04,10,03,3.10
2014,03,04,10,04,3.00
2014,03,04,10,05,3.00
2014,03,04,10,06,2.90
2014,03,04,10,07,2.80
2014,03,04,10,08,2.80
2014,03,04,10,09,2.80
2014,03,04,10,10,2.80
2014,03,04,10,11,2.70
2014,03,04,10,12,2.70
2014,03,04,10,13,2.60
2014,03,04,10,14,2.60
2014,03,04,10,15,2.60
2014,03,04,10,16,2.60
2014,03,04,10,17,2.60
2014,03,04,10,18,2.50
2014,03,04,10,19,2.50
2014,03,04,10,20,2.40
2014,03,04,10,21,2.40
2014,03,04,10,22,2.40
2014,03,04,10,23,2.40
2014,03,04,10,24,2.40
2014,03,04,10,25,2.40
2014,03,04,10,26,2.40
2014,03,04,10,27,2.40
2014,03,04,10,28,2.40
2014,03,04,10,29,2.40
2014,03,04,10,30,2.30
2014,03,04,10,31,2.30
2014,03,04,10,32,2.30
2014,03,04,10,33,2.20
2014,03,04,10,34,2.20
2014,03,04,10,35,2.20
2014,03,04,10,36,2.20
2014,03,04,10,37,2.20
2014,03,04,10,38,2.20
2014,03,04,10,39,2.20
2014,03,04,10,40,2.20
2014,03,04,10,41,2.20
2014,03,04,10,42,2.10
2014,03,04,10,43,2.10
2014,03,04,10,44,2.10
2014,03,04,10,45,2.10
2014,03,04,10,46,2.10
2014,03,04,10,47,2.10
2014,03,04,10,48,2.10
2014,03,04,10,49,2.10
2014,03,04,10,50,2.10
2014,03,04,10,51,2.10
2014,03,04,10,52,2.10
2014,03,04,10,53,2.10
2014,03,04,10,54,2.10
2014,03,04,10,55,2.10
2014,03,04,10,56,2.10
2014,03,04,10,57,2.10
2014,03,04,10,58,2.00
2014,03,04,10,59,2.00
2014,03,04,11,00,2.00
2014,03,04,11,01,1.90
2014,03,04,11,02,1.90
2014,03,04,11,03,1.90
2014,03,04,11,04,1.90
2014,03,04,11,05,1.90
2014,03,04,11,06,1.90
2014,03,04,11,07,1.90
2014,03,04,11,08,1.80
2014,03,04,11,09,1.80
2014,03,04,11,10,1.80
2014,03,04,11,11,1.80
2014,03,04,11,12,1.80
2014,03,04,11,13,1.80
2014,03,04,11,14,1.80
2014,03,04,11,15,1.80
2014,03,04,11,16,1.80
2014,03,04,11,17,1.80
2014,03,04,11,18,1.80
2014,03,04,11,19,1.70
2014,03,04,11,20,1.70
2014,03,04,11,21,1.70
2014,03,04,11,22,1.70
2014,03,04,11,23,1.70
2014,03,04,11,24,1.70
2014,03,04,11,25,1.70
2014,03,04,11,26,1.70
2014,03,04,11,27,1.70
2014,03,04,11,28,1.70
2014,03,04,11,29,1.70
2014,03,04,11,30,1.70
2014,03,04,11,31,1.60
2014,03,04,11,32,1.60
2014,03,04,11,33,1.60
2014,03,04,11,34,1.60
2014,03,04,11,35,1.60
2014,03,04,11,36,1.60
2014,03,04,11,37,1.50
2014,03,04,11,38,1.50
2014,03,04,11,39,1.50
2014,03,04,11,40,1.40
2014,03,04,11,41,1.40
2014,03,04,11,42,1.40
2014,03,04,11,43,1.40
2014,03,04,11,44,1.40
2014,03,04,11,45,1.40
2014,03,04,11,46,1.50
2014,03,04,11,47,1.50
2014,03,04,11,48,1.50
2014,03,04,11,49,1.50
2014,03,04,11,50,1.50
2014,03,04,11,51,1.50
2014,03,04,11,52,1.50
2014,03,04,11,53,1.50
2014,03,04,11,54,1.50
2014,03,04,11,55,1.50
2014,03,04,11,56,1.50
2014,03,04,11,57,1.50
2014,03,04,11,58,1.50
2014,03,04,11,59,1.50
2014,03,04,12,00,1.50
2014,03,04,12,01,1.50
2014,03,04,12,02,1.50
2014,03,04,12,03,1.60
2014,03,04,12,04,1.60
2014,03,04,12,05,1.60
2014,03,04,12,06,1.60
2014,03,04,12,07,1.60
2014,03,04,12,08,1.70
2014,03,04,12,09,1.70
2014,03,04,12,10,1.60
2014,03,04,12,11,1.60
2014,03,04,12,12,1.60
2014,03,04,12,13,1.60
2014,03,04,12,14,1.60
2014,03,04,12,15,1.70
2014,03,04,12,16,1.70
2014,03,04,12,17,1.70
2014,03,04,12,18,1.70
2014,03,04,12,19,1.70
2014,03,04,12,20,1.70
2014,03,04,12,21,1.70
2014,03,04,12,22,1.70
2014,03,04,12,23,1.80
2014,03,04,12,24,1.80
2014,03,04,12,25,1.80
2014,03,04,12,26,1.80
2014,03,04,12,27,1.90
2014,03,04,12,28,1.90
2014,03,04,12,29,1.90
2014,03,04,12,30,1.90
2014,03,04,12,31,2.00
2014,03,04,12,32,2.00
2014,03,04,12,33,2.00
2014,03,04,12,34,2.10
2014,03,04,12,35,2.10
2014,03,04,12,36,2.10
2014,03,04,12,37,2.10
2014,03,04,12,38,2.10
2014,03,04,12,39,2.10
2014,03,04,12,40,2.10
2014,03,04,12,41,2.10
2014,03,04,12,42,2.10
2014,03,04,12,43,2.20
2014,03,04,12,44,2.20
2014,03,04,12,45,2.10
2014,03,04,12,46,2.10
2014,03,04,12,47,2.10
2014,03,04,12,48,2.10
2014,03,04,12,49,2.10
2014,03,04,12,50,2.00
2014,03,04,12,51,2.00
2014,03,04,12,52,2.00
2014,03,04,12,53,2.00
2014,03,04,12,54,2.00
2014,03,04,12,55,2.10
2014,03,04,12,56,2.10
2014,03,04,12,57,2.10
2014,03,04,12,58,2.10
2014,03,04,12,59,2.00
2014,03,04,13,00,1.90
2014,03,04,13,01,1.90
2014,03,04,13,02,1.90
2014,03,04,13,03,1.90
2014,03,04,13,04,1.90
2014,03,04,13,05,1.90
2014,03,04,13,06,1.90
2014,03,04,13,07,1.90
2014,03,04,13,08,1.90
2014,03,04,13,09,1.90
2014,03,04,13,10,1.90
2014,03,04,13,11,2.00
2014,03,04,13,12,2.00
2014,03,04,13,13,2.00
2014,03,04,13,14,2.00
2014,03,04,13,15,2.00
2014,03,04,13,16,2.00
2014,03,04,13,17,1.90
2014,03,04,13,18,1.90
2014,03,04,13,19,1.90
2014,03,04,13,20,1.90
2014,03,04,13,21,1.90
2014,03,04,13,22,1.90
2014,03,04,13,23,1.80
2014,03,04,13,24,1.80
2014,03,04,13,25,1.80
2014,03,04,13,26,1.80
2014,03,04,13,27,1.80
2014,03,04,13,28,1.70
2014,03,04,13,29,1.70
2014,03,04,13,30,1.80
2014,03,04,13,31,1.80
2014,03,04,13,32,1.80
2014,03,04,13,33,1.80
2014,03,04,13,34,1.80
2014,03,04,13,35,1.80
2014,03,04,13,36,1.80
2014,03,04,13,37,1.80
2014,03,04,13,38,1.80
2014,03,04,13,39,1.80
2014,03,04,13,40,1.80
2014,03,04,13,41,1.80
2014,03,04,13,42,1.80
2014,03,04,13,43,1.80
2014,03,04,13,44,1.80
2014,03,04,13,45,1.80
2014,03,04,13,46,1.80
2014,03,04,13,47,1.80
2014,03,04,13,48,1.70
2014,03,04,13,49,1.70
2014,03,04,13,50,1.70
2014,03,04,13,51,1.70
2014,03,04,13,52,1.70
2014,03,04,13,53,1.70
2014,03,04,13,54,1.70
2014,03,04,13,55,1.70
2014,03,04,13,56,1.80
2014,03,04,13,57,1.80
2014,03,04,13,58,1.80
2014,03,04,13,59,1.80
2014,03,04,14,00,1.80
2014,03,04,14,01,1.80
2014,03,04,14,02,1.80
2014,03,04,14,03,1.80
2014,03,04,14,04,1.80
2014,03,04,14,05,1.80
2014,03,04,14,06,1.80
2014,03,04,14,07,1.80
2014,03,04,14,08,1.80
2014,03,04,14,09,1.80
2014,03,04,14,10,1.80
2014,03,04,14,11,1.90
2014,03,04,14,12,1.80
2014,03,04,14,13,1.90
2014,03,04,14,14,1.80
2014,03,04,14,15,1.90
2014,03,04,14,16,1.90
2014,03,04,14,17,1.90
2014,03,04,14,18,1.90
2014,03,04,14,19,1.90
2014,03,04,14,20,2.00
2014,03,04,14,21,2.00
2014,03,04,14,22,2.00
2014,03,04,14,23,2.10
2014,03,04,14,24,2.10
2014,03,04,14,25,2.10
2014,03,04,14,26,2.10
2014,03,04,14,27,2.10
2014,03,04,14,28,2.10
2014,03,04,14,29,2.10
2014,03,04,14,30,2.10
2014,03,04,14,31,2.10
2014,03,04,14,32,2.10
2014,03,04,14,33,2.10
2014,03,04,14,34,2.10
2014,03,04,14,35,2.10
2014,03,04,14,36,2.10
2014,03,04,14,37,2.00
2014,03,04,14,38,2.00
2014,03,04,14,39,2.00
2014,03,04,14,40,2.00
2014,03,04,14,41,2.10
2014,03,04,14,42,2.00
2014,03,04,14,43,2.00
2014,03,04,14,44,2.10
2014,03,04,14,45,2.10
2014,03,04,14,46,2.10
2014,03,04,14,47,2.10
2014,03,04,14,48,2.10
2014,03,04,14,49,2.10
2014,03,04,14,50,2.10
2014,03,04,14,51,2.10
2014,03,04,14,52,2.10
2014,03,04,14,53,2.10
2014,03,04,14,54,2.10
2014,03,04,14,55,2.10
2014,03,04,14,56,2.10
2014,03,04,14,57,2.10
2014,03,04,14,58,2.20
2014,03,04,14,59,2.20
2014,03,04,15,00,2.20
2014,03,04,15,01,2.20
2014,03,04,15,02,2.20
2014,03,04,15,03,2.20
2014,03,04,15,04,2.20
2014,03,04,15,05,2.20
2014,03,04,15,06,2.20
2014,03,04,15,07,2.20
2014,03,04,15,08,2.20
2014,03,04,15,09,2.20
2014,03,04,15,10,2.20
2014,03,04,15,11,2.20
2014,03,04,15,12,2.20
2014,03,04,15,13,2.20
2014,03,04,15,14,2.20
2014,03,04,15,15,2.30
2014,03,04,15,16,2.30
2014,03,04,15,17,2.30
2014,03,04,15,18,2.30
2014,03,04,15,19,2.30
2014,03,04,15,20,2.30
2014,03,04,15,21,2.30
2014,03,04,15,22,2.30
2014,03,04,15,23,2.30
2014,03,04,15,24,2.30
2014,03,04,15,25,2.30
2014,03,04,15,26,2.30
2014,03,04,15,27,2.30
2014,03,04,15,28,2.30
2014,03,04,15,29,2.30
2014,03,04,15,30,2.30
2014,03,04,15,31,2.30
2014,03,04,15,32,2.30
2014,03,04,15,33,2.40
2014,03,04,15,34,2.40
2014,03,04,15,35,2.40
2014,03,04,15,36,2.40
2014,03,04,15,37,2.50
2014,03,04,15,38,2.50
2014,03,04,15,39,2.50
2014,03,04,15,40,2.50
2014,03,04,15,41,2.50
2014,03,04,15,42,2.60
2014,03,04,15,43,2.60
2014,03,04,15,44,2.60
2014,03,04,15,45,2.60
2014,03,04,15,46,2.60
2014,03,04,15,47,2.60
2014,03,04,15,48,2.60
2014,03,04,15,49,2.60
2014,03,04,15,50,2.60
2014,03,04,15,51,2.60
2014,03,04,15,52,2.60
2014,03,04,15,53,2.60
2014,03,04,15,54,2.60
2014,03,04,15,55,2.70
2014,03,04,15,56,2.70
2014,03,04,15,57,2.70
2014,03,04,15,58,2.70
2014,03,04,15,59,2.70
2014,03,04,16,00,2.70
2014,03,04,16,01,2.70
2014,03,04,16,02,2.70
2014,03,04,16,03,2.70
2014,03,04,16,04,2.80
2014,03,04,16,05,2.80
2014,03,04,16,06,2.80
2014,03,04,16,07,2.70
2014,03,04,16,08,2.70
2014,03,04,16,09,2.70
2014,03,04,16,10,2.70
2014,03,04,16,11,2.70
2014,03,04,16,12,2.70
2014,03,04,16,13,2.70
2014,03,04,16,14,2.70
2014,03,04,16,15,2.70
2014,03,04,16,16,2.70
2014,03,04,16,17,2.70
2014,03,04,16,18,2.60
2014,03,04,16,19,2.60
2014,03,04,16,20,2.70
2014,03,04,16,21,2.70
2014,03,04,16,22,2.70
2014,03,04,16,23,2.70
2014,03,04,16,24,2.70
2014,03,04,16,25,2.70
2014,03,04,16,26,2.70
2014,03,04,16,27,2.70
2014,03,04,16,28,2.70
2014,03,04,16,29,2.70
2014,03,04,16,30,2.70
2014,03,04,16,31,2.70
2014,03,04,16,32,2.70
2014,03,04,16,33,2.80
2014,03,04,16,34,2.80
2014,03,04,16,35,2.70
2014,03,04,16,36,2.70
2014,03,04,16,37,2.70
2014,03,04,16,38,2.70
2014,03,04,16,39,2.70
2014,03,04,16,40,2.70
2014,03,04,16,41,2.70
2014,03,04,16,42,2.70
2014,03,04,16,43,2.70
2014,03,04,16,44,2.70
2014,03,04,16,45,2.70
2014,03,04,16,46,2.70
2014,03,04,16,47,2.80
2014,03,04,16,48,2.80
2014,03,04,16,49,2.80
2014,03,04,16,50,2.80
2014,03,04,16,51,2.80
2014,03,04,16,52,2.80
2014,03,04,16,53,2.70
2014,03,04,16,54,2.70
2014,03,04,16,55,2.70
2014,03,04,16,56,2.70
2014,03,04,16,57,2.70
2014,03,04,16,58,2.70
2014,03,04,16,59,2.70
2014,03,04,17,00,2.70
2014,03,04,17,01,2.70
2014,03,04,17,02,2.70
2014,03,04,17,03,2.70
2014,03,04,17,04,2.70
2014,03,04,17,05,2.70
2014,03,04,17,06,2.80
2014,03,04,17,07,2.80
2014,03,04,17,08,2.80
2014,03,04,17,09,2.80
2014,03,04,17,10,2.80
2014,03,04,17,11,2.80
2014,03,04,17,12,2.80
2014,03,04,17,13,2.80
2014,03,04,17,14,2.80
2014,03,04,17,15,2.80
2014,03,04,17,16,2.80
2014,03,04,17,17,2.80
2014,03,04,17,18,2.80
2014,03,04,17,19,2.80
2014,03,04,17,20,2.80
2014,03,04,17,21,2.80
2014,03,04,17,22,2.80
2014,03,04,17,23,2.80
2014,03,04,17,24,2.80
2014,03,04,17,25,2.90
2014,03,04,17,26,2.80
2014,03,04,17,27,2.80
2014,03,04,17,28,2.80
2014,03,04,17,29,2.80
2014,03,04,17,30,2.80
2014,03,04,17,31,2.80
2014,03,04,17,32,2.80
2014,03,04,17,33,2.80
2014,03,04,17,34,2.80
2014,03,04,17,35,2.80
2014,03,04,17,36,2.80
2014,03,04,17,37,2.80
2014,03,04,17,38,2.80
2014,03,04,17,39,2.80
2014,03,04,17,40,2.80
2014,03,04,17,41,2.80
2014,03,04,17,42,2.80
2014,03,04,17,43,2.80
2014,03,04,17,44,2.80
2014,03,04,17,45,2.70
2014,03,04,17,46,2.70
2014,03,04,17,47,2.70
2014,03,04,17,48,2.70
2014,03,04,17,49,2.70
2014,03,04,17,50,2.70
2014,03,04,17,51,2.70
2014,03,04,17,52,2.70
2014,03,04,17,53,2.70
2014,03,04,17,54,2.70
2014,03,04,17,55,2.70
2014,03,04,17,56,2.70
2014,03,04,17,57,2.70
2014,03,04,17,58,2.70
2014,03,04,17,59,2.70
2014,03,04,18,00,2.70
2014,03,04,18,01,2.70
2014,03,04,18,02,2.70
2014,03,04,18,03,2.70
2014,03,04,18,04,2.70
2014,03,04,18,05,2.80
2014,03,04,18,06,2.80